Location: Street
(51.1247°N, 2.7429°W)
Time: 05:31:25
(UTC+00:00)

SR - Pass Details

Date: 01 December 2020
Orbit: 575 x 880 km, 66.7° (Epoch: 25 January)

Event Time Altitude Azimuth Distance (km) Brightness Sun altitude
Rises 19:35:31 0° 248° (WSW) 2,854 ? -31.7°
Reaches altitude 10° 19:37:53 10° 258° (WSW) 1,988 ? -32.1°
Enters shadow 19:40:51 29° 295° (WNW) 1,185 ? -32.6°
Maximum altitude 19:41:56 33° 323° (NW) 1,110 - -32.7°
Drops below altitude 10° 19:46:19 10° 27° (NNE) 2,153 - -33.4°
Sets 19:48:59 0° 37° (NE) 3,131 - -33.8°
